This is the latest recevied weather packets stored in our database for station/object W6UA-13. If no packets are shown the sender has not sent any weather packets the latest 10 day(s).
| Time | Temp. | Humidity | Pressure | Rain* | Wind** | Luminosity | Snow |
|---|---|---|---|---|---|---|---|
| 1777447193 | 10.56° C | 83% | 1018 hPa | 0 mm | - | 0 W/m² | - |
| 1777446293 | 10.56° C | 83% | 1018 hPa | 0 mm | - | 0 W/m² | - |
| 1777445393 | 11.11° C | 83% | 1018.2 hPa | 0 mm | - | 0 W/m² | - |
| 1777444493 | 11.11° C | 83% | 1018 hPa | 0 mm | - | 0 W/m² | - |
| 1777443593 | 11.11° C | 83% | 1018.1 hPa | 0 mm | - | 0 W/m² | - |
| 1777442693 | 11.67° C | 82% | 1018 hPa | 0 mm | - | 0 W/m² | - |
| 1777441793 | 11.67° C | 82% | 1018 hPa | 0 mm | - | 0 W/m² | - |
| 1777440893 | 12.22° C | 82% | 1017.9 hPa | 0 mm | - | 0 W/m² | - |
| 1777439993 | 12.22° C | 81% | 1018 hPa | 0 mm | - | 0 W/m² | - |
| 1777439093 | 12.78° C | 79% | 1018.2 hPa | 0 mm | - | 0 W/m² | - |
| 1777438193 | 12.78° C | 78% | 1018.1 hPa | 0 mm | - | 0 W/m² | - |
| 1777437293 | 12.78° C | 77% | 1018.3 hPa | 0 mm | - | 0 W/m² | - |
| 1777436393 | 13.33° C | 75% | 1018.2 hPa | 0 mm | - | 0 W/m² | - |
| 1777435493 | 13.89° C | 72% | 1018.1 hPa | 0 mm | - | 0 W/m² | - |
| 1777434593 | 14.44° C | 70% | 1018 hPa | 0 mm | - | 0 W/m² | - |
| 1777433693 | 14.44° C | 65% | 1018 hPa | 0 mm | - | 0 W/m² | - |
| 1777432793 | 15° C | 65% | 1017.9 hPa | 0 mm | - | 0 W/m² | - |
| 1777431893 | 15° C | 62% | 1017.6 hPa | 0 mm | - | 0 W/m² | - |
| 1777430993 | 15.56° C | 59% | 1017.5 hPa | 0 mm | - | 0 W/m² | - |
| 1777430093 | 16.67° C | 54% | 1017.5 hPa | 0 mm | - | 11 W/m² | - |
| 1777429193 | 17.78° C | 48% | 1017.6 hPa | 0 mm | - | 23 W/m² | - |
| 1777428293 | 18.33° C | 47% | 1017.8 hPa | 0 mm | - | 63 W/m² | - |
| 1777427393 | 18.33° C | 47% | 1017.7 hPa | 0 mm | - | 123 W/m² | - |
| 1777426493 | 19.44° C | 47% | 1018 hPa | 0 mm | - | 160 W/m² | - |
| 1777425593 | 19.44° C | 46% | 1018 hPa | 0 mm | - | 176 W/m² | - |
* Rain latest hour (hover to see other rain measurements)
** Current wind speed in m/s (hover to see current wind gust speed)